Volver al catálogo

STARLINK-5730

ActivoComunicacionesVLEO
NORAD 55611·PAYLOAD·🇺🇸 United States

Lanzado Feb 12, 2023 desde Cape Canaveral Space Force Station

Loading…

Próximos Pases (próximas 24 horas)

TLE

ActualizadoSource: CelesTrak SupGP

Época: Sep 14, 2026, 21:32 UTC

1 55611C 23020AU  26257.89770833 -.00009294  00000+0 -33643-3 0  2576
2 55611  43.0034   6.0289 0002176 272.9820  30.6999 15.27602291    17

Sigue STARLINK-5730 en tiempo real con AllMySat

Download on the App Store